User: anonymous   Login
Location: Melbourne
(37.8170°S, 144.9670°E)
Time: 07:55:31
(UTC+10:00)
Language:

Cosmos 1656 Rocket - Orbit

View from above orbital plane
View from above orbital plane
View from above satellite
View from above satellite

Ground track
Ground track

The orbit data is extracted from the following two-line orbital elements,

1 15772U 85042D   15187.81313551 -.00000087  00000-0 -18191-4 0  9991
2 15772 071.1081 036.6328 0033657 067.7488 009.6857 14.21127003560382
Epoch (UTC): 06 July 2015 19:30:54
Eccentricity: 0.0033657
inclination: 71.1081°
perigee height: 797 km
apogee height: 846 km
right ascension of ascending node: 36.6328°
argument of perigee: 67.7488°
revolutions per day: 14.21127003
mean anomaly at epoch: 9.6857°
orbit number at epoch: 56038

The dashed part of the orbit path shows where the satellite is in the earth's shadow,  

DLR